Flag for U.S.A. Weather past 2 weeks in Salt Lake City, Utah, U.S.A.

Now
43 °F

Broken clouds.


Feels Like: 39 °F
Forecast: 34 / 45 °F
Wind: 6 mph from North

Location: Salt Lake City International Airport

Current Time: Jan 28, 2015 at 10:16:24 AM

Latest Report: Jan 28, 2015 at 9:53 AM


Visibility: 10 mi

Pressure: 30.27 "Hg

Humidity: 86%

Dew point: 39 °F

Location of Salt Lake CityLocation

Historic Weather in Salt Lake City — Graph

°F

Salt Lake City temperature yesterday

Maximum temperature yesterday: 57 °F (at 2:53 PM)
Minimum temperature yesterday: 30 °F (at 3:53 AM)
Average temperature yesterday: 41 °F

Past Weeks' High & Low Weather Summary

 TemperatureHumidityPressure
High57 °F (Jan 27, 2:53 PM)96% (Jan 13, 8:53 AM)30.59 "Hg (Jan 13, 8:53 AM)
Low21 °F (Jan 22, 4:53 AM)36% (Jan 22, 1:53 PM)30.11 "Hg (Jan 27, 1:53 PM)
Average35 °F75%30.36 "Hg
* Reported Jan 13 8:53 AM — Jan 28 8:53 AM, Salt Lake City, Weather by CustomWeather, © 2014

Note: Actual official high and low records may vary slightly from our data, if they occured in-between our weather recording intervals... More about our weather records

Advertising

Salt Lake City weather history for previous 24 hours

 ConditionsComfort  
Time TempWeatherWind HumidityBarometerVisibility
8:53 AM
Jan 28
41 °FPartly sunny.3 mph89%30.27 "Hg10 mi
7:53 AM42 °FBroken clouds.3 mph85%30.24 "Hg10 mi
6:53 AM40 °FOvercast.No wind89%30.22 "Hg10 mi
5:53 AM40 °FMostly cloudy.3 mph89%30.19 "Hg9 mi
4:53 AM42 °FOvercast.3 mph82%30.18 "Hg10 mi
3:53 AM47 °FPartly cloudy.7 mph59%30.13 "Hg10 mi
2:53 AM47 °FPassing clouds.8 mph61%30.13 "Hg10 mi
1:53 AM48 °FPassing clouds.14 mph59%30.12 "Hg10 mi
12:53 AM44 °FMostly cloudy.3 mph71%30.12 "Hg10 mi
11:53 PM
Jan 27
40 °FPartly cloudy.3 mph83%30.14 "Hg10 mi
10:53 PM43 °FPartly cloudy.5 mph76%30.14 "Hg10 mi
9:53 PM44 °FMostly cloudy.15 mph76%30.16 "Hg10 mi
8:53 PM40 °FPartly cloudy.5 mph86%30.17 "Hg10 mi
7:53 PM41 °FPassing clouds.No wind82%30.12 "Hg10 mi
6:53 PM42 °FPassing clouds.7 mph82%30.13 "Hg10 mi
5:53 PM47 °FPassing clouds.5 mph71%30.13 "Hg10 mi
4:53 PM50 °FScattered clouds.No wind61%30.13 "Hg10 mi
3:53 PM56 °FBroken clouds.No wind49%30.13 "Hg10 mi
2:53 PM57 °FBroken clouds.17 mph44%30.12 "Hg10 mi
1:53 PM56 °FBroken clouds.22 mph44%30.11 "Hg10 mi
12:53 PM56 °FScattered clouds.21 mph46%30.14 "Hg10 mi
11:53 AM51 °FPartly sunny.14 mph54%30.19 "Hg10 mi
10:53 AM42 °FBroken clouds.6 mph76%30.23 "Hg8 mi
Weather by CustomWeather, © 2014

See weather overviewHow to use our weather pages